Oakland, CA

1:27 PM PDT on June 25, 2018 (GMT -0700)
Metro Oakland International

Weather History for KOAK - November, 2017

Change the Weather History Date:

Thursday, November 23, 2017

  Actual Average Record
Temperature  
Mean Temperature 59 °F 52 °F  
Max Temperature 65 °F 61 °F 74 °F (1959)
Min Temperature 53 °F 44 °F 35 °F (2003)
Degree Days  
Heating Degree Days 6 13  
Month to date heating degree days 200 228  
Since 1 July heating degree days 393 580  
Cooling Degree Days 0 0  
Month to date cooling degree days 0 0  
Year to date cooling degree days 312 137  
Growing Degree Days 9 (Base 50)    
Moisture  
Dew Point 57 °F    
Average Humidity 89    
Maximum Humidity 100    
Minimum Humidity 78    
Precipitation  
Precipitation 0.00 in 0.08 in 1.00 in (1963)
Month to date precipitation 2.62 1.88  
Year to date precipitation 22.87 16.58  
Sea Level Pressure  
Sea Level Pressure 30.12 in    
Wind  
Wind Speed 2 mph (West)    
Max Wind Speed 9 mph    
Max Gust Speed 10 mph    
Visibility 9 miles    
Events Fog    
T = Trace of Precipitation, MM = Missing Value Source: NWS Daily Summary

Daily Weather History Graph

Daily Weather History Graph

Search for Another Location

Airport or City:

Astronomy

Nov. 23, 2017 Rise Set
Actual Time 6:57 AM PST 4:52 PM PST
Civil Twilight 6:29 AM PST 5:21 PM PST
Nautical Twilight 5:57 AM PST 5:53 PM PST
Astronomical Twilight 5:25 AM PST 6:24 PM PST
Moon 11:03 AM PST (11/23) 9:22 PM PST (11/23)
Length of Visible Light 10h 51m
Length of Day
9h 55m
Waxing Crescent, 24% of the Moon is Illuminated
Nov 23
Waxing Crescent
Nov 26
First Quarter
Dec 3
Full
Dec 9
Last Quarter
Dec 17
New

Hourly Weather History & Observations

Time (PST) Temp. Dew Point Humidity Pressure Visibility Wind Dir Wind Speed Gust Speed Precip Events Conditions
12:53 AM 57.9 °F 57.0 °F 97% 30.13 in 10.0 mi Calm Calm - N/A   Mostly Cloudy
1:53 AM 57.9 °F 57.9 °F 100% 30.12 in 9.0 mi Calm Calm - N/A   Mostly Cloudy
2:53 AM 57.0 °F 57.0 °F 100% 30.13 in 10.0 mi East 3.5 mph - N/A   Mostly Cloudy
3:53 AM 57.9 °F 57.9 °F 100% 30.11 in 10.0 mi Calm Calm - N/A   Mostly Cloudy
4:53 AM 55.0 °F 55.0 °F 100% 30.12 in 9.0 mi Calm Calm - N/A   Mostly Cloudy
5:53 AM 55.0 °F 55.0 °F 100% 30.12 in 9.0 mi NW 5.8 mph - N/A   Mostly Cloudy
6:53 AM 55.9 °F 55.9 °F 100% 30.14 in 7.0 mi NW 3.5 mph - N/A   Mostly Cloudy
7:37 AM 54.0 °F 54.0 °F 100% 30.15 in 7.0 mi Calm Calm - N/A Fog Shallow Fog
7:53 AM 55.9 °F 55.9 °F 100% 30.15 in 7.0 mi Calm Calm - N/A Fog Shallow Fog
8:53 AM 57.9 °F 57.9 °F 100% 30.15 in 10.0 mi Calm Calm - N/A   Mostly Cloudy
9:53 AM 60.1 °F 57.9 °F 93% 30.15 in 10.0 mi SSW 4.6 mph - N/A   Mostly Cloudy
10:53 AM 61.0 °F 57.0 °F 87% 30.16 in 10.0 mi WSW 5.8 mph - N/A   Mostly Cloudy
11:53 AM 62.1 °F 57.0 °F 84% 30.13 in 10.0 mi SW 3.5 mph - N/A   Mostly Cloudy
12:53 PM 62.1 °F 57.9 °F 86% 30.12 in 10.0 mi West 4.6 mph - N/A   Overcast
1:53 PM 62.1 °F 57.9 °F 86% 30.10 in 10.0 mi SW 3.5 mph - N/A   Overcast
2:53 PM 64.0 °F 57.9 °F 80% 30.09 in 10.0 mi Calm Calm - N/A   Overcast
3:53 PM 63.0 °F 57.0 °F 81% 30.09 in 10.0 mi WNW 5.8 mph - N/A   Overcast
4:53 PM 63.0 °F 57.0 °F 81% 30.08 in 10.0 mi Calm Calm - N/A   Overcast
5:53 PM 61.0 °F 57.9 °F 90% 30.09 in 10.0 mi Calm Calm - N/A   Mostly Cloudy
6:53 PM 61.0 °F 57.9 °F 90% 30.09 in 10.0 mi WNW 3.5 mph - N/A   Mostly Cloudy
7:53 PM 59.0 °F 57.9 °F 96% 30.10 in 10.0 mi NW 3.5 mph - N/A   Mostly Cloudy
8:53 PM 59.0 °F 57.0 °F 93% 30.11 in 10.0 mi Calm Calm - N/A   Mostly Cloudy
9:53 PM 59.0 °F 57.0 °F 93% 30.12 in 10.0 mi Calm Calm - N/A   Mostly Cloudy
10:53 PM 57.9 °F 57.9 °F 100% 30.12 in 8.0 mi Calm Calm - N/A   Mostly Cloudy
11:53 PM 57.9 °F 57.9 °F 100% 30.12 in 8.0 mi Calm Calm - N/A   Mostly Cloudy